TimeCDT,TemperatureF,Dew PointF,Humidity,Sea Level PressureIn,VisibilityMPH,Wind Direction,Wind SpeedMPH,Gust SpeedMPH,PrecipitationIn,Events,Conditions,WindDirDegrees,DateUTC
12:53 AM,70.0,53.1,55,29.91,10.0,South,6.9,-,N/A,,Clear,190,2012-11-03 05:53:00
1:53 AM,64.9,53.1,65,29.93,10.0,South,6.9,-,N/A,,Partly Cloudy,190,2012-11-03 06:53:00
2:53 AM,66.9,54.0,63,29.92,10.0,South,8.1,-,N/A,,Clear,180,2012-11-03 07:53:00
3:53 AM,62.1,54.0,75,29.95,10.0,West,4.6,-,N/A,,Partly Cloudy,280,2012-11-03 08:53:00
4:53 AM,59.0,53.1,81,29.96,10.0,SSW,4.6,-,N/A,,Clear,200,2012-11-03 09:53:00
5:53 AM,60.1,48.9,67,30.01,10.0,NNW,3.5,-,N/A,,Clear,340,2012-11-03 10:53:00
6:53 AM,57.0,46.0,67,30.03,10.0,NNW,5.8,-,N/A,,Clear,340,2012-11-03 11:53:00
7:53 AM,55.9,45.0,67,30.06,10.0,North,5.8,-,N/A,,Scattered Clouds,350,2012-11-03 12:53:00
8:53 AM,57.0,44.1,62,30.09,10.0,North,10.4,-,N/A,,Partly Cloudy,360,2012-11-03 13:53:00
9:53 AM,59.0,39.9,49,30.11,10.0,North,12.7,-,N/A,,Partly Cloudy,10,2012-11-03 14:53:00
10:53 AM,62.1,39.9,44,30.12,10.0,North,9.2,-,N/A,,Partly Cloudy,360,2012-11-03 15:53:00
11:53 AM,63.0,37.9,40,30.12,10.0,NNE,10.4,-,N/A,,Partly Cloudy,30,2012-11-03 16:53:00
12:53 PM,66.0,37.9,36,30.10,10.0,NE,8.1,-,N/A,,Scattered Clouds,40,2012-11-03 17:53:00
1:53 PM,66.9,37.0,33,30.08,10.0,NNE,10.4,-,N/A,,Partly Cloudy,20,2012-11-03 18:53:00
2:53 PM,68.0,37.0,32,30.06,10.0,North,10.4,-,N/A,,Clear,360,2012-11-03 19:53:00
3:53 PM,69.1,37.0,31,30.06,10.0,NNE,12.7,17.3,N/A,,Clear,20,2012-11-03 20:53:00
4:53 PM,68.0,37.0,32,30.07,10.0,North,12.7,-,N/A,,Clear,10,2012-11-03 21:53:00
5:53 PM,64.9,36.0,34,30.07,10.0,NNE,9.2,17.3,N/A,,Mostly Cloudy,30,2012-11-03 22:53:00
6:53 PM,61.0,37.0,41,30.10,10.0,NE,4.6,-,N/A,,Scattered Clouds,40,2012-11-03 23:53:00
7:53 PM,57.0,37.0,47,30.12,10.0,North,6.9,-,N/A,,Partly Cloudy,360,2012-11-04 00:53:00
8:53 PM,55.9,37.0,49,30.12,10.0,Calm,Calm,-,N/A,,Clear,0,2012-11-04 01:53:00
9:53 PM,54.0,37.9,55,30.13,10.0,NNE,3.5,-,N/A,,Partly Cloudy,20,2012-11-04 02:53:00
10:53 PM,52.0,39.0,61,30.13,10.0,NNE,4.6,-,N/A,,Scattered Clouds,30,2012-11-04 03:53:00
11:53 PM,53.1,39.9,61,30.13,10.0,NNE,5.8,-,N/A,,Partly Cloudy,30,2012-11-04 04:53:00